Weather History for KPBI - October, 2012

Change the Weather History Date:

Sunday, October 14, 2012

  Actual Average Record
Temperature  
Mean Temperature 83 °F 79 °F  
Max Temperature 86 °F 85 °F 91 °F (1901)
Min Temperature 80 °F 72 °F 55 °F (1977)
Degree Days  
Heating Degree Days 0 0  
Month to date heating degree days 0 0  
Since 1 July heating degree days 0 0  
Cooling Degree Days 18 14  
Month to date cooling degree days 246 207  
Year to date cooling degree days 3663 3415  
Growing Degree Days 33 (Base 50)    
Moisture  
Dew Point 71 °F    
Average Humidity 71    
Maximum Humidity 79    
Minimum Humidity 62    
Precipitation  
Precipitation T in 0.15 in 6.25 in (1908)
Month to date precipitation 2.56 2.62  
Year to date precipitation 69.96 51.69  
Snow  
Snow 0.00 in - - ()
Month to date snowfall 0.0  
Since 1 July snowfall 0.0  
Since 1 September snowfall 0.0  
Snow Depth 0.00 in    
Sea Level Pressure  
Sea Level Pressure 29.99 in    
Wind  
Wind Speed 15 mph (ENE)    
Max Wind Speed 24 mph    
Max Gust Speed 30 mph    
Visibility 10 miles    
Events Rain    
T = Trace of Precipitation, MM = Missing Value Source: NWS Daily Summary

Daily Weather History Graph

Daily Weather History Graph

Search for Another Location

Airport or City:

Trip Planner

Search our weather history database for the weather conditions in past years. The results will help you decide how hot, cold, wet, or windy it might be!

Date:

Astronomy

Oct. 14, 2012 Rise Set
Actual Time 7:19 AM EDT 6:52 PM EDT
Civil Twilight 6:56 AM EDT 7:15 PM EDT
Nautical Twilight 6:29 AM EDT 7:42 PM EDT
Astronomical Twilight 6:02 AM EDT 8:09 PM EDT
Moon 6:18 AM EDT (10/14) 6:12 PM EDT (10/14)
Length of Visible Light 12h 19m
Length of Day
11h 33m
Waning Crescent, 1% of the Moon is Illuminated
Oct 14
Waning Crescent
Oct 15
New
Oct 21
First Quarter
Oct 29
Full
Nov 6
Last Quarter

Hourly Weather History & Observations

Time (EDT) Temp. Heat Index Dew Point Humidity Pressure Visibility Wind Dir Wind Speed Gust Speed Precip Events Conditions
12:53 AM 81.0 °F 83.3 °F 66.9 °F 62% 30.05 in 10.0 mi ENE 15.0 mph 25.3 mph N/A   Partly Cloudy
1:53 AM 81.0 °F 83.8 °F 68.0 °F 65% 30.04 in 10.0 mi East 17.3 mph 26.5 mph N/A   Scattered Clouds
2:53 AM 81.0 °F 84.1 °F 69.1 °F 67% 30.02 in 10.0 mi ENE 12.7 mph 21.9 mph N/A   Scattered Clouds
3:53 AM 80.1 °F 83.2 °F 70.0 °F 71% 30.01 in 10.0 mi ENE 11.5 mph 23.0 mph 0.00 in Rain Light Rain
4:53 AM 81.0 °F 84.4 °F 70.0 °F 69% 30.00 in 10.0 mi ENE 15.0 mph 20.7 mph 0.00 in   Mostly Cloudy
5:53 AM 81.0 °F 83.8 °F 68.0 °F 65% 30.00 in 10.0 mi ENE 16.1 mph 27.6 mph N/A   Mostly Cloudy
6:53 AM 80.1 °F 82.7 °F 68.0 °F 67% 30.01 in 10.0 mi ENE 18.4 mph 28.8 mph N/A   Partly Cloudy
7:53 AM 81.0 °F 84.4 °F 70.0 °F 69% 30.02 in 10.0 mi ENE 17.3 mph 23.0 mph N/A   Mostly Cloudy
8:08 AM 80.6 °F 83.9 °F 69.8 °F 70% 30.03 in 10.0 mi ENE 11.5 mph 23.0 mph N/A   Mostly Cloudy
8:53 AM 82.0 °F 85.9 °F 70.0 °F 67% 30.04 in 10.0 mi ENE 15.0 mph - N/A   Mostly Cloudy
9:53 AM 82.9 °F 87.0 °F 70.0 °F 65% 30.04 in 10.0 mi ENE 18.4 mph 24.2 mph N/A   Mostly Cloudy
10:53 AM 82.9 °F 87.5 °F 71.1 °F 67% 30.04 in 10.0 mi ENE 16.1 mph - N/A   Overcast
11:53 AM 84.0 °F 89.6 °F 72.0 °F 67% 30.03 in 10.0 mi ENE 19.6 mph 27.6 mph N/A   Overcast
12:53 PM 84.9 °F 90.7 °F 72.0 °F 65% 30.01 in 10.0 mi ENE 17.3 mph 25.3 mph N/A   Mostly Cloudy
1:53 PM 84.9 °F 91.4 °F 73.0 °F 67% 29.99 in 10.0 mi ENE 17.3 mph 25.3 mph N/A   Mostly Cloudy
2:53 PM 84.9 °F 91.4 °F 73.0 °F 67% 29.97 in 10.0 mi NE 16.1 mph 26.5 mph N/A   Mostly Cloudy
3:53 PM 84.0 °F 90.2 °F 73.0 °F 69% 29.96 in 10.0 mi ENE 20.7 mph 25.3 mph 0.00 in   Mostly Cloudy
4:36 PM 84.2 °F 90.9 °F 73.4 °F 70% 29.95 in 10.0 mi ENE 17.3 mph 25.3 mph 0.00 in   Mostly Cloudy
4:53 PM 84.9 °F 91.4 °F 73.0 °F 67% 29.95 in 10.0 mi NE 17.3 mph 25.3 mph 0.00 in   Mostly Cloudy
5:53 PM 84.0 °F 91.2 °F 73.9 °F 72% 29.95 in 10.0 mi ENE 17.3 mph 26.5 mph N/A   Mostly Cloudy
6:53 PM 82.0 °F 87.9 °F 73.9 °F 76% 29.95 in 10.0 mi ENE 15.0 mph 20.7 mph N/A   Mostly Cloudy
7:53 PM 82.0 °F 87.4 °F 73.0 °F 74% 29.95 in 10.0 mi ENE 13.8 mph - N/A   Mostly Cloudy
8:53 PM 82.0 °F 87.4 °F 73.0 °F 74% 29.96 in 10.0 mi ENE 11.5 mph - N/A   Mostly Cloudy
9:53 PM 82.0 °F 87.9 °F 73.9 °F 76% 29.96 in 10.0 mi East 12.7 mph 19.6 mph N/A   Mostly Cloudy
10:29 PM 82.4 °F 88.2 °F 73.4 °F 74% 29.96 in 10.0 mi East 10.4 mph - N/A   Mostly Cloudy
10:53 PM 82.0 °F 87.4 °F 73.0 °F 74% 29.96 in 10.0 mi East 12.7 mph - N/A   Mostly Cloudy
11:20 PM 80.6 °F 85.4 °F 73.4 °F 79% 29.96 in 10.0 mi East 10.4 mph - 0.00 in Rain Light Rain
11:53 PM 81.0 °F 86.2 °F 73.9 °F 79% 29.95 in 10.0 mi East 10.4 mph - 0.00 in   Mostly Cloudy